Regional Weather Roundup
Issued by NWS Burlington, VT

Home | Current Version | Previous Version | Text Only | Print | Product List | Glossary On
Versions: 1 2 3 4 5 6 7 8 9 10 11 12 13 14 15 16 17 18 19 20 21 22 23 24 25 26 27 28 29 30 31 32 33 34 35 36 37 38 39 40 41 42 43 44 45 46 47 48 49 50
000
ASUS41 KBTV 060630
RWRBTV
VERMONT REGIONAL WEATHER ROUNDUP
NATIONAL WEATHER SERVICE BURLINGTON VT
100 AM EST TUE DEC 06 2016

NOTE: "FAIR" INDICATES FEW OR NO CLOUDS BELOW 12,000 FEET WITH NO
SIGNIFICANT WEATHER AND/OR OBSTRUCTIONS TO VISIBILITY.

* THESE REPORTS ARE NOT UNDER NWS QUALITY CONTROL AND/OR DO NOT
  REPORT WEATHER SUCH AS PRECIPITATION AND FOG.

VTZ001>019-060700-
_____VERMONT_____


CITY           SKY/WX    TMP DP  RH WIND       PRES   REMARKS
BURLINGTON     CLOUDY    32  27  81 NE6       30.06R WCI  26
6HR MIN TEMP:  31; 6HR MAX TEMP:  36;

MONTPELIER     CLOUDY    31  28  89 NW6       30.03R WCI  25
6HR MIN TEMP:  29; 6HR MAX TEMP:  32;

MORRISVILLE    LGT SNOW  28  25  88 NE10      30.05R FOG     WCI  19
6HR MIN TEMP:  29; 6HR MAX TEMP:  33; 6HR PCP: TRACE;

ST. JOHNSBURY*   N/A     32  28  85 MISG      30.00R
6HR MIN TEMP:  30; 6HR MAX TEMP:  33;

LYNDONVILLE*   MIX PCPN  29  26  86 NW5       30.01R WCI  24
6HR MIN TEMP:  28; 6HR MAX TEMP:  30;

MIDDLEBURY*    CLOUDY   N/A N/A N/A CALM      30.04R
RUTLAND*       MOCLDY    32  28  85 N3        30.02S
6HR MIN TEMP:  32; 6HR MAX TEMP:  37;

SPRINGFIELD    CLEAR     20  18  92 SE5       30.02R WCI  13
6HR MIN TEMP:  18; 6HR MAX TEMP:  25;

HIGHGATE*      CLOUDY    28  27  95 CALM      30.06F FOG
6HR MIN TEMP:  28; 6HR MAX TEMP:  28;

NEWPORT*       CLOUDY    26  23  88 N6        30.03R WCI  19
6HR MIN TEMP:  26; 6HR MAX TEMP:  30;

BENNINGTON     CLOUDY    34  31  88 CALM      30.04R
6HR MIN TEMP:  30; 6HR MAX TEMP:  37;

SUTTON*          N/A     27 N/A N/A MISG        N/A
ISLAND POND*     N/A     27 N/A N/A W5          N/A  WCI  21
GALLUP MILLS*    N/A     27 N/A N/A MISG        N/A
UNION VILLAGE*   N/A     18 N/A N/A MISG        N/A
MT. MANSFIELD*   N/A     21 N/A N/A CALM        N/A

_____LAKE CHAMPLAIN_____


CITY           SKY/WX    TMP DP  RH WIND       PRES   REMARKS
BURTON ISLAND*   N/A     32  28  86 NE2         N/A
COLCHESTER RF*   N/A     34  32  93 NE13        N/A  WCI  25

$$

NYZ007-026>031-035-052-083-087-060700-
_____NORTHERN NEW YORK_____


CITY           SKY/WX    TMP DP  RH WIND       PRES   REMARKS
PLATTSBURGH    CLOUDY    31  27  85 N3        30.05S
6HR MIN TEMP:  30; 6HR MAX TEMP:  33;

SARANAC LAKE   CLOUDY    32  28  85 W3        29.99R
6HR MIN TEMP:  30; 6HR MAX TEMP:  32; 6HR PCP: TRACE;

MASSENA        CLOUDY    30  28  93 CALM      30.07S
6HR MIN TEMP:  26; 6HR MAX TEMP:  33;

OGDENSBURG*    FAIR      31  31  98 W7        30.07R WCI  25
6HR MIN TEMP:  32; 6HR MAX TEMP:  36;

POTSDAM*       CLOUDY    32  32 100 W5        30.06R WCI  27
WATERTOWN      CLEAR     34  31  88 W5        30.08R WCI  30
6HR MIN TEMP:  33; 6HR MAX TEMP:  41;

FT DRUM        CLEAR     33  30  89 VRB5      30.05R WCI  29
6HR MIN TEMP:  33; 6HR MAX TEMP:  37;

ALBANY         PTCLDY    37  30  75 W9        30.07S WCI  30
6HR MIN TEMP:  36; 6HR MAX TEMP:  39; 6HR PCP: TRACE;

GLENS FALLS    CLOUDY    31  28  89 CALM      30.06R
6HR MIN TEMP:  27; 6HR MAX TEMP:  39;


$$
NHZ002-005-011-060700-
_____NEW HAMPSHIRE_____


CITY           SKY/WX    TMP DP  RH WIND       PRES   REMARKS
LEBANON        FOG       20  18  92 S5        30.01R VSB 1/4 WCI  13
6HR MIN TEMP:  17; 6HR MAX TEMP:  30;

KEENE          FOG       19  18  93 CALM      30.05R VSB 3/4
6HR MIN TEMP:  18; 6HR MAX TEMP:  29;

MT WASHINGTON  BLWGSNOW  10  10 100 NW51        N/A  VSB 0   WCI -16
6HR MIN TEMP:  10; 6HR MAX TEMP:  14; 6HR PCP:  0.03;

PLYMOUTH         N/A     34  29  80 NW7       30.00R WCI  28
6HR MIN TEMP:  26; 6HR MAX TEMP:  34;

WHITEFIELD     CLOUDY    30  26  85 S3        30.00R
6HR MIN TEMP:  29; 6HR MAX TEMP:  31; 6HR PCP: TRACE;


$$

_____REGIONAL QUEBEC LOCATIONS_____


CITY           SKY/WX    TMP DP  RH WIND       PRES   REMARKS
MONTREAL       MOCLDY    23  21  93 SW3       30.07R
QUEBEC CITY    CLOUDY    23  21  93 SW12      30.02R WCI  12
SHERBROOKE     FLURRIES  25  21  86 W7        30.02R WCI  17

_____REGIONAL ONTARIO LOCATIONS_____


CITY           SKY/WX    TMP DP  RH WIND       PRES   REMARKS
OTTAWA         MOCLDY    28  27  93 NE2       30.06R FOG

______KEY______
VSB  - VISIBILITY IN MILES
WCI  - WIND CHILL INDEX
HX   - HEAT INDEX
$$
NNNN



USA.gov is the U.S. government's official web portal to all federal, state and local government web resources and services.